When you browse on this site, cookies collect data to enhance your experience and personalize the content and advertising you see.
Visit our Privacy Policy to learn more. By continuing to use the site, you agree to this use of cookies and data.
  • In United Kingdom
  • List of Countries
  • For 7 days
  • Water Temperature
  • Satellite Maps
  • Weather Map
  • Weather Widgets
  • user-avatar
    Login

    Hourly Weather Zhlobin

    Today, 26 May, Sunday

    Time Temperature Precipitation Wind Pressure Humidity
    00:00 +14°C° 0 mm 2 mps 744 mmHg 89%
    01:00 +14°C° 0 mm 2 mps 744 mmHg 90%
    02:00 +13°C° 0 mm 2 mps 744 mmHg 92%
    03:00 +13°C° 0 mm 2 mps 744 mmHg 91%
    04:00 +13°C° 0 mm 2 mps 744 mmHg 91%
    05:00 +13°C° 0 mm 2 mps 744 mmHg 90%
    06:00 +14°C° 0 mm 3 mps 745 mmHg 84%
    07:00 +16°C° 0 mm 3 mps 745 mmHg 77%
    08:00 +18°C° 0 mm 3 mps 745 mmHg 70%
    09:00 +19°C° 0 mm 4 mps 745 mmHg 65%
    10:00 +20°C° 0 mm 5 mps 745 mmHg 60%
    11:00 +20°C° 0 mm 5 mps 745 mmHg 55%
    12:00 +21°C° 0 mm 5 mps 745 mmHg 53%
    13:00 +21°C° 0 mm 6 mps 745 mmHg 51%
    14:00 +21°C° 0 mm 6 mps 745 mmHg 48%
    15:00 +20°C° 0 mm 6 mps 745 mmHg 51%
    16:00 +20°C° 0 mm 5 mps 745 mmHg 53%
    17:00 +20°C° 0 mm 5 mps 745 mmHg 56%
    18:00 +18°C° 0 mm 4 mps 745 mmHg 63%
    19:00 +16°C° 0 mm 3 mps 745 mmHg 70%
    20:00 +14°C° 0 mm 2 mps 746 mmHg 77%
    21:00 +13°C° 0 mm 2 mps 746 mmHg 82%
    22:00 +13°C° 0 mm 2 mps 746 mmHg 86%
    23:00 +12°C° 0 mm 2 mps 747 mmHg 90%

    Tomorrow, 27 May, Monday

    Time Temperature Precipitation Wind Pressure Humidity
    00:00 +10°C° 0 mm 2 mps 747 mmHg 92%
    01:00 +10°C° 0 mm 2 mps 747 mmHg 93%
    02:00 +9°C° 0 mm 2 mps 748 mmHg 94%
    03:00 +9°C° 0 mm 2 mps 748 mmHg 94%
    04:00 +10°C° 0 mm 2 mps 748 mmHg 93%
    05:00 +10°C° 0 mm 2 mps 748 mmHg 92%
    06:00 +12°C° 0 mm 3 mps 748 mmHg 84%
    07:00 +14°C° 0 mm 3 mps 748 mmHg 76%
    08:00 +18°C° 0 mm 4 mps 748 mmHg 68%
    09:00 +19°C° 0 mm 4 mps 748 mmHg 63%
    10:00 +21°C° 0 mm 4 mps 748 mmHg 58%
    11:00 +23°C° 0 mm 4 mps 748 mmHg 53%
    12:00 +23°C° 0 mm 4 mps 748 mmHg 51%
    13:00 +25°C° 0 mm 5 mps 748 mmHg 49%
    14:00 +26°C° 0 mm 5 mps 747 mmHg 46%
    15:00 +26°C° 0 mm 4 mps 747 mmHg 51%
    16:00 +25°C° 0 mm 4 mps 747 mmHg 55%
    17:00 +25°C° 0 mm 3 mps 747 mmHg 59%
    18:00 +24°C° 0 mm 3 mps 747 mmHg 65%
    19:00 +21°C° 0 mm 3 mps 747 mmHg 71%
    20:00 +20°C° 0 mm 3 mps 747 mmHg 77%
    21:00 +19°C° 0 mm 3 mps 747 mmHg 81%
    22:00 +18°C° 0 mm 3 mps 747 mmHg 86%
    23:00 +18°C° 0 mm 3 mps 747 mmHg 90%

    Day after tomorrow, 28 May, Tuesday

    Time Temperature Precipitation Wind Pressure Humidity
    00:00 +17°C° 0 mm 3 mps 747 mmHg 92%
    01:00 +17°C° 0 mm 2 mps 747 mmHg 93%
    02:00 +17°C° 0 mm 2 mps 747 mmHg 95%
    03:00 +17°C° 0.2 mm 2 mps 747 mmHg 95%
    04:00 +17°C° 0.2 mm 3 mps 747 mmHg 95%
    05:00 +17°C° 0.2 mm 3 mps 747 mmHg 95%
    06:00 +19°C° 0 mm 3 mps 747 mmHg 90%
    07:00 +20°C° 0 mm 4 mps 747 mmHg 85%
    08:00 +22°C° 0 mm 5 mps 747 mmHg 80%
    09:00 +23°C° 0 mm 6 mps 747 mmHg 70%
    10:00 +26°C° 0 mm 7 mps 747 mmHg 61%
    11:00 +28°C° 0 mm 8 mps 747 mmHg 52%
    12:00 +28°C° 0 mm 8 mps 747 mmHg 51%
    13:00 +27°C° 0 mm 8 mps 746 mmHg 50%
    14:00 +27°C° 0 mm 8 mps 746 mmHg 48%
    15:00 +27°C° 0 mm 7 mps 746 mmHg 50%
    16:00 +27°C° 0 mm 7 mps 746 mmHg 52%
    17:00 +27°C° 0 mm 6 mps 746 mmHg 54%
    18:00 +26°C° 0 mm 5 mps 746 mmHg 60%
    19:00 +23°C° 0 mm 4 mps 746 mmHg 66%
    20:00 +22°C° 0 mm 4 mps 746 mmHg 71%
    21:00 +21°C° 0 mm 4 mps 746 mmHg 74%
    22:00 +21°C° 0 mm 4 mps 746 mmHg 77%
    23:00 +20°C° 0 mm 4 mps 747 mmHg 79%

    29 May, Wednesday

    Time Temperature Precipitation Wind Pressure Humidity
    00:00 +20°C° 0 mm 5 mps 746 mmHg 78%
    01:00 +19°C° 0 mm 5 mps 746 mmHg 76%
    02:00 +19°C° 0 mm 5 mps 746 mmHg 75%
    03:00 +19°C° 0 mm 5 mps 746 mmHg 75%
    04:00 +19°C° 0 mm 5 mps 746 mmHg 75%
    05:00 +17°C° 0 mm 6 mps 746 mmHg 75%
    06:00 +19°C° 0 mm 6 mps 746 mmHg 71%
    07:00 +20°C° 0 mm 7 mps 746 mmHg 67%
    08:00 +22°C° 0 mm 7 mps 747 mmHg 63%
    09:00 +23°C° 0 mm 7 mps 747 mmHg 59%
    10:00 +24°C° 0 mm 7 mps 747 mmHg 56%
    11:00 +26°C° 0 mm 7 mps 747 mmHg 53%
    12:00 +27°C° 0 mm 7 mps 747 mmHg 53%
    13:00 +27°C° 0 mm 7 mps 747 mmHg 52%
    14:00 +28°C° 0 mm 7 mps 746 mmHg 51%
    15:00 +28°C° 0 mm 7 mps 746 mmHg 53%
    16:00 +27°C° 0 mm 6 mps 746 mmHg 55%
    17:00 +27°C° 0 mm 6 mps 746 mmHg 57%
    18:00 +25°C° 0.8 mm 5 mps 746 mmHg 66%
    19:00 +23°C° 0.8 mm 4 mps 746 mmHg 75%
    20:00 +21°C° 0.8 mm 3 mps 746 mmHg 84%
    21:00 +20°C° 1.5 mm 3 mps 746 mmHg 87%
    22:00 +20°C° 1.5 mm 3 mps 747 mmHg 90%
    23:00 +19°C° 1.5 mm 3 mps 747 mmHg 93%

    30 May, Thursday

    Time Temperature Precipitation Wind Pressure Humidity
    00:00 +19°C° 0.1 mm 3 mps 747 mmHg 93%
    01:00 +19°C° 0.1 mm 3 mps 747 mmHg 93%
    02:00 +18°C° 0.1 mm 3 mps 746 mmHg 93%
    03:00 +18°C° 0 mm 3 mps 746 mmHg 93%
    04:00 +18°C° 0 mm 3 mps 746 mmHg 93%
    05:00 +18°C° 0 mm 3 mps 746 mmHg 93%
    06:00 +19°C° 0 mm 3 mps 746 mmHg 88%
    07:00 +20°C° 0 mm 4 mps 746 mmHg 82%
    08:00 +22°C° 0 mm 4 mps 746 mmHg 77%
    09:00 +23°C° 0 mm 4 mps 746 mmHg 70%
    10:00 +26°C° 0 mm 5 mps 746 mmHg 62%
    11:00 +28°C° 0 mm 5 mps 746 mmHg 55%
    12:00 +27°C° 0.4 mm 5 mps 746 mmHg 58%
    13:00 +27°C° 0.4 mm 5 mps 746 mmHg 60%
    14:00 +27°C° 0.4 mm 5 mps 746 mmHg 63%
    15:00 +26°C° 1.5 mm 4 mps 746 mmHg 69%
    16:00 +25°C° 1.5 mm 3 mps 746 mmHg 76%
    17:00 +22°C° 1.5 mm 3 mps 747 mmHg 83%
    18:00 +21°C° 0.5 mm 2 mps 747 mmHg 86%
    19:00 +20°C° 0.5 mm 2 mps 747 mmHg 90%
    20:00 +19°C° 0.5 mm 2 mps 748 mmHg 93%
    21:00 +18°C° 0.3 mm 3 mps 748 mmHg 94%
    22:00 +17°C° 0.3 mm 3 mps 748 mmHg 95%
    23:00 +15°C° 0.3 mm 4 mps 749 mmHg 96%

    31 May, Friday

    Time Temperature Precipitation Wind Pressure Humidity
    00:00 +14°C° 0.3 mm 4 mps 749 mmHg 95%
    01:00 +13°C° 0.3 mm 4 mps 749 mmHg 95%
    02:00 +11°C° 0.3 mm 4 mps 750 mmHg 94%
    03:00 +11°C° 0.7 mm 4 mps 750 mmHg 94%
    04:00 +11°C° 0.7 mm 4 mps 750 mmHg 94%
    05:00 +11°C° 0.7 mm 4 mps 751 mmHg 94%
    06:00 +11°C° 0 mm 4 mps 751 mmHg 92%
    07:00 +11°C° 0 mm 4 mps 752 mmHg 90%
    08:00 +11°C° 0 mm 4 mps 752 mmHg 87%
    09:00 +13°C° 0 mm 4 mps 752 mmHg 81%
    10:00 +14°C° 0 mm 4 mps 753 mmHg 74%
    11:00 +17°C° 0 mm 4 mps 753 mmHg 67%
    12:00 +17°C° 0 mm 5 mps 753 mmHg 64%
    13:00 +19°C° 0 mm 5 mps 753 mmHg 60%
    14:00 +20°C° 0 mm 5 mps 753 mmHg 56%
    15:00 +20°C° 0 mm 5 mps 754 mmHg 56%
    16:00 +20°C° 0 mm 5 mps 754 mmHg 56%
    17:00 +19°C° 0 mm 5 mps 754 mmHg 56%
    18:00 +18°C° 0 mm 4 mps 754 mmHg 62%
    19:00 +16°C° 0 mm 3 mps 755 mmHg 68%
    20:00 +15°C° 0 mm 2 mps 755 mmHg 74%
    21:00 +14°C° 0 mm 2 mps 755 mmHg 75%
    22:00 +13°C° 0 mm 2 mps 755 mmHg 77%
    23:00 +12°C° 0 mm 2 mps 755 mmHg 79%
    Show more